| time (UTC) | temp F | wind direction | speed MPH | gust MPH | rain 1hr in | rain 24hr in | rain mn in | humidity % | barometer mb |
| 20260504151037 | 58 | 35 | 2.0 | 3.0 | 0.00 | 0.00 | 0.00 | 79 | 1016.8 |
| 20260504150553 | 58 | 38 | 1.0 | 2.0 | 0.00 | 0.00 | 0.00 | 79 | 1016.9 |
| 20260504141042 | 56 | 36 | 0.0 | 2.0 | 0.00 | 0.00 | 0.00 | 86 | 1016.6 |
| 20260504140538 | 56 | 32 | 0.0 | 3.0 | 0.00 | 0.00 | 0.00 | 86 | 1016.5 |
| 20260504130604 | 56 | 35 | 0.0 | 0.0 | 0.00 | 0.00 | 0.00 | 83 | 1016.1 |
| 20260504130106 | 56 | 38 | 0.0 | 0.0 | 0.00 | 0.00 | 0.00 | 83 | 1016.1 |
| 20260504110521 | 57 | 35 | 3.0 | 4.0 | 0.00 | 0.00 | 0.00 | 81 | 1016.1 |
| 20260504110111 | 57 | 39 | 2.0 | 4.0 | 0.00 | 0.00 | 0.00 | 81 | 1016.0 |
| 20260504100549 | 58 | 36 | 3.0 | 7.0 | 0.00 | 0.00 | 0.00 | 83 | 1015.5 |
| 20260504090105 | 57 | 38 | 4.0 | 9.0 | 0.00 | 0.00 | 0.00 | 86 | 1015.9 |
| 20260504081600 | 59 | 36 | 5.0 | 11.0 | 0.00 | 0.00 | 0.00 | 80 | 1016.5 |
| 20260504081518 | 59 | 36 | 5.0 | 11.0 | 0.00 | 0.00 | 0.00 | 80 | 1016.5 |
| 20260504081114 | 59 | 34 | 6.0 | 11.0 | 0.00 | 0.00 | 0.00 | 80 | 1016.8 |
| 20260504080526 | 59 | 34 | 7.0 | 10.0 | 0.00 | 0.00 | 0.00 | 80 | 1016.8 |
| 20260504070113 | 60 | 35 | 6.0 | 12.0 | 0.00 | 0.00 | 0.00 | 77 | 1017.0 |
| 20260504050517 | 60 | 36 | 4.0 | 8.0 | 0.00 | 0.00 | 0.00 | 73 | 1016.2 |
| 20260504045613 | 61 | 32 | 5.0 | 9.0 | 0.00 | 0.00 | 0.00 | 73 | 1016.4 |
| 20260504045106 | 61 | 35 | 5.0 | 8.0 | 0.00 | 0.00 | 0.00 | 73 | 1016.2 |
| 20260504044609 | 61 | 36 | 4.0 | 8.0 | 0.00 | 0.00 | 0.00 | 73 | 1016.3 |
| 20260504044042 | 61 | 34 | 3.0 | 5.0 | 0.00 | 0.00 | 0.00 | 72 | 1016.1 |
| 20260504043536 | 61 | 36 | 3.0 | 7.0 | 0.00 | 0.00 | 0.00 | 72 | 1015.9 |
| 20260504043015 | 61 | 34 | 4.0 | 7.0 | 0.00 | 0.00 | 0.00 | 72 | 1016.0 |
| 20260504042611 | 61 | 34 | 3.0 | 6.0 | 0.00 | 0.00 | 0.00 | 73 | 1016.0 |
| 20260504042045 | 61 | 36 | 2.0 | 4.0 | 0.00 | 0.00 | 0.00 | 72 | 1016.0 |
| 20260504041547 | 61 | 38 | 1.0 | 8.0 | 0.00 | 0.00 | 0.00 | 73 | 1015.9 |
| 20260504041041 | 60 | 35 | 4.0 | 8.0 | 0.00 | 0.00 | 0.00 | 73 | 1016.0 |
| 20260504040535 | 60 | 35 | 5.0 | 8.0 | 0.00 | 0.00 | 0.00 | 73 | 1016.0 |
| 20260504040056 | 61 | 36 | 4.0 | 8.0 | 0.00 | 0.00 | 0.00 | 72 | 1015.8 |
| 20260504035605 | 61 | 35 | 4.0 | 10.0 | 0.00 | 0.00 | 0.00 | 72 | 1015.9 |
| 20260504035018 | 61 | 35 | 7.0 | 10.0 | 0.00 | 0.00 | 0.00 | 72 | 1015.9 |
| 20260504034521 | 61 | 35 | 6.0 | 10.0 | 0.00 | 0.00 | 0.00 | 71 | 1016.0 |
| 20260504034021 | 61 | 36 | 4.0 | 8.0 | 0.00 | 0.00 | 0.00 | 71 | 1016.0 |
| 20260504033516 | 61 | 35 | 3.0 | 10.0 | 0.00 | 0.00 | 0.00 | 71 | 1015.9 |
| 20260504033101 | 61 | 35 | 6.0 | 10.0 | 0.00 | 0.00 | 0.00 | 71 | 1015.9 |
| 20260504033018 | 61 | 35 | 6.0 | 10.0 | 0.00 | 0.00 | 0.00 | 71 | 1015.9 |
| 20260504032549 | 61 | 36 | 4.0 | 8.0 | 0.00 | 0.00 | 0.00 | 71 | 1015.9 |
| 20260504032049 | 61 | 32 | 4.0 | 8.0 | 0.00 | 0.00 | 0.00 | 71 | 1015.8 |
| 20260504031547 | 61 | 35 | 5.0 | 8.0 | 0.00 | 0.00 | 0.00 | 72 | 1015.8 |
| 20260504031101 | 61 | 36 | 5.0 | 8.0 | 0.00 | 0.00 | 0.00 | 72 | 1015.7 |
| 20260504030536 | 61 | 32 | 4.0 | 6.0 | 0.00 | 0.00 | 0.00 | 71 | 1015.6 |
| 20260504030059 | 61 | 34 | 3.0 | 9.0 | 0.00 | 0.00 | 0.00 | 71 | 1015.5 |
| 20260504025532 | 61 | 35 | 4.0 | 9.0 | 0.00 | 0.00 | 0.00 | 72 | 1015.5 |
| 20260504025049 | 61 | 34 | 3.0 | 8.0 | 0.00 | 0.00 | 0.00 | 71 | 1015.4 |
| 20260504024550 | 61 | 35 | 4.0 | 9.0 | 0.00 | 0.00 | 0.00 | 72 | 1015.3 |
| 20260504024104 | 61 | 38 | 6.0 | 9.0 | 0.00 | 0.00 | 0.00 | 72 | 1015.3 |
| 20260504023537 | 61 | 35 | 5.0 | 11.0 | 0.00 | 0.00 | 0.00 | 72 | 1015.3 |
| 20260504023100 | 61 | 38 | 7.0 | 12.0 | 0.00 | 0.00 | 0.00 | 72 | 1015.4 |
| 20260504022553 | 61 | 34 | 7.0 | 13.0 | 0.00 | 0.00 | 0.00 | 72 | 1015.5 |
| 20260504022107 | 61 | 34 | 7.0 | 13.0 | 0.00 | 0.00 | 0.00 | 71 | 1015.4 |
| 20260504021609 | 61 | 36 | 5.0 | 12.0 | 0.00 | 0.00 | 0.00 | 71 | 1015.6 |
| 20260504021527 | 61 | 36 | 5.0 | 12.0 | 0.00 | 0.00 | 0.00 | 71 | 1015.6 |
| 20260504021023 | 61 | 34 | 8.0 | 15.0 | 0.00 | 0.00 | 0.00 | 70 | 1015.3 |
| 20260504020539 | 61 | 36 | 9.0 | 15.0 | 0.00 | 0.00 | 0.00 | 69 | 1015.2 |
| 20260504020113 | 61 | 35 | 9.0 | 13.0 | 0.00 | 0.00 | 0.00 | 69 | 1015.3 |
| 20260504015548 | 61 | 34 | 8.0 | 13.0 | 0.00 | 0.00 | 0.00 | 69 | 1015.3 |
| 20260504015023 | 61 | 35 | 8.0 | 13.0 | 0.00 | 0.00 | 0.00 | 69 | 1015.1 |
| 20260504014609 | 61 | 35 | 7.0 | 11.0 | 0.00 | 0.00 | 0.00 | 69 | 1015.1 |
| 20260504014526 | 61 | 35 | 7.0 | 11.0 | 0.00 | 0.00 | 0.00 | 69 | 1015.1 |
| 20260504014022 | 61 | 36 | 7.0 | 12.0 | 0.00 | 0.00 | 0.00 | 69 | 1015.2 |
| 20260504013558 | 61 | 32 | 9.0 | 13.0 | 0.00 | 0.00 | 0.00 | 68 | 1015.2 |
| 20260504013515 | 61 | 32 | 9.0 | 13.0 | 0.00 | 0.00 | 0.00 | 68 | 1015.2 |
| 20260504013100 | 62 | 36 | 6.0 | 13.0 | 0.00 | 0.00 | 0.00 | 67 | 1015.2 |
| 20260504013017 | 62 | 36 | 6.0 | 13.0 | 0.00 | 0.00 | 0.00 | 67 | 1015.2 |
| 20260504012613 | 61 | 35 | 9.0 | 14.0 | 0.00 | 0.00 | 0.00 | 68 | 1014.9 |
| 20260504012530 | 61 | 35 | 9.0 | 14.0 | 0.00 | 0.00 | 0.00 | 68 | 1014.9 |
| 20260504012106 | 61 | 36 | 10.0 | 14.0 | 0.00 | 0.00 | 0.00 | 69 | 1015.0 |
| 20260504012023 | 61 | 36 | 10.0 | 14.0 | 0.00 | 0.00 | 0.00 | 69 | 1015.0 |
| 20260504011546 | 61 | 36 | 9.0 | 14.0 | 0.00 | 0.00 | 0.00 | 69 | 1014.9 |
| 20260504011020 | 62 | 35 | 7.0 | 13.0 | 0.00 | 0.00 | 0.00 | 68 | 1015.0 |
| 20260504010556 | 62 | 36 | 8.0 | 15.0 | 0.00 | 0.00 | 0.00 | 67 | 1014.8 |
| 20260504010513 | 62 | 36 | 8.0 | 15.0 | 0.00 | 0.00 | 0.00 | 67 | 1014.8 |
| 20260504010013 | 62 | 37 | 10.0 | 15.0 | 0.00 | 0.00 | 0.00 | 66 | 1014.9 |
| 20260504005529 | 62 | 34 | 9.0 | 16.0 | 0.00 | 0.00 | 0.00 | 66 | 1014.7 |
| 20260504005025 | 62 | 35 | 7.0 | 16.0 | 0.00 | 0.00 | 0.00 | 65 | 1014.5 |
| 20260504004610 | 62 | 34 | 9.0 | 14.0 | 0.00 | 0.00 | 0.00 | 65 | 1014.5 |
| 20260504004059 | 62 | 34 | 9.0 | 14.0 | 0.00 | 0.00 | 0.00 | 66 | 1014.7 |
| 20260504004016 | 62 | 34 | 9.0 | 14.0 | 0.00 | 0.00 | 0.00 | 66 | 1014.7 |
| 20260504003611 | 62 | 36 | 10.0 | 16.0 | 0.00 | 0.00 | 0.00 | 66 | 1014.7 |
| 20260504003529 | 62 | 36 | 10.0 | 16.0 | 0.00 | 0.00 | 0.00 | 66 | 1014.7 |
| 20260504003053 | 62 | 32 | 9.0 | 18.0 | 0.00 | 0.00 | 0.00 | 63 | 1014.5 |
| 20260504002527 | 63 | 35 | 11.0 | 17.0 | 0.00 | 0.00 | 0.00 | 63 | 1014.5 |
| 20260504002023 | 63 | 36 | 9.0 | 16.0 | 0.00 | 0.00 | 0.00 | 63 | 1014.4 |
| 20260504001607 | 63 | 36 | 11.0 | 16.0 | 0.00 | 0.00 | 0.00 | 63 | 1014.3 |
| 20260504001041 | 63 | 36 | 10.0 | 14.0 | 0.00 | 0.00 | 0.00 | 62 | 1014.4 |
| 20260504000516 | 64 | 36 | 8.0 | 15.0 | 0.00 | 0.00 | 0.00 | 60 | 1014.3 |
| 20260504000111 | 65 | 32 | 10.0 | 15.0 | 0.00 | 0.00 | 0.00 | 58 | 1014.2 |
| 20260504000029 | 65 | 32 | 10.0 | 15.0 | 0.00 | 0.00 | 0.00 | 58 | 1014.2 |
| 20260503235544 | 65 | 34 | 8.0 | 16.0 | 0.00 | 0.00 | 0.00 | 58 | 1014.2 |
| 20260503235059 | 65 | 36 | 9.0 | 16.0 | 0.00 | 0.00 | 0.00 | 58 | 1014.1 |
| 20260503235016 | 65 | 36 | 9.0 | 16.0 | 0.00 | 0.00 | 0.00 | 58 | 1014.1 |
| 20260503234520 | 65 | 32 | 10.0 | 14.0 | 0.00 | 0.00 | 0.00 | 57 | 1014.0 |
| 20260503234037 | 65 | 36 | 9.0 | 14.0 | 0.00 | 0.00 | 0.00 | 58 | 1013.9 |
| 20260503233552 | 65 | 32 | 10.0 | 16.0 | 0.00 | 0.00 | 0.00 | 58 | 1013.9 |
| 20260503233034 | 66 | 36 | 10.0 | 15.0 | 0.00 | 0.00 | 0.00 | 56 | 1014.0 |
| 20260503232550 | 66 | 36 | 9.0 | 15.0 | 0.00 | 0.00 | 0.00 | 57 | 1013.9 |
| 20260503232105 | 65 | 37 | 9.0 | 20.0 | 0.00 | 0.00 | 0.00 | 59 | 1014.0 |
| 20260503232022 | 65 | 37 | 9.0 | 20.0 | 0.00 | 0.00 | 0.00 | 59 | 1014.0 |
| 20260503231607 | 66 | 36 | 10.0 | 20.0 | 0.00 | 0.00 | 0.00 | 57 | 1014.0 |
| 20260503231020 | 66 | 34 | 10.0 | 16.0 | 0.00 | 0.00 | 0.00 | 57 | 1014.2 |
| 20260503230515 | 66 | 34 | 11.0 | 15.0 | 0.00 | 0.00 | 0.00 | 57 | 1014.2 |
| 20260503230020 | 66 | 35 | 8.0 | 14.0 | 0.00 | 0.00 | 0.00 | 57 | 1014.2 |
| 20260503225516 | 65 | 38 | 8.0 | 14.0 | 0.00 | 0.00 | 0.00 | 58 | 1014.2 |
| 20260503225016 | 66 | 35 | 9.0 | 13.0 | 0.00 | 0.00 | 0.00 | 58 | 1014.2 |
| 20260503224518 | 66 | 32 | 7.0 | 14.0 | 0.00 | 0.00 | 0.00 | 58 | 1014.3 |
| 20260503224013 | 66 | 36 | 8.0 | 14.0 | 0.00 | 0.00 | 0.00 | 59 | 1014.2 |
| 20260503223529 | 66 | 34 | 6.0 | 16.0 | 0.00 | 0.00 | 0.00 | 58 | 1014.2 |
| 20260503223053 | 66 | 35 | 10.0 | 16.0 | 0.00 | 0.00 | 0.00 | 57 | 1014.3 |
| 20260503222607 | 67 | 35 | 8.0 | 15.0 | 0.00 | 0.00 | 0.00 | 57 | 1014.4 |
| 20260503222020 | 66 | 37 | 9.0 | 15.0 | 0.00 | 0.00 | 0.00 | 58 | 1014.5 |
| 20260503221522 | 65 | 35 | 6.0 | 14.0 | 0.00 | 0.00 | 0.00 | 59 | 1014.5 |
| 20260503221041 | 65 | 36 | 8.0 | 16.0 | 0.00 | 0.00 | 0.00 | 60 | 1014.5 |
| 20260503220555 | 65 | 36 | 8.0 | 12.0 | 0.00 | 0.00 | 0.00 | 60 | 1014.5 |
| 20260503220057 | 66 | 34 | 7.0 | 14.0 | 0.00 | 0.00 | 0.00 | 59 | 1014.6 |
| 20260503215606 | 66 | 32 | 7.0 | 15.0 | 0.00 | 0.00 | 0.00 | 61 | 1014.8 |
| 20260503215524 | 66 | 32 | 7.0 | 15.0 | 0.00 | 0.00 | 0.00 | 61 | 1014.8 |
| 20260503215023 | 65 | 32 | 8.0 | 13.0 | 0.00 | 0.00 | 0.00 | 61 | 1014.9 |
| 20260503214541 | 66 | 35 | 7.0 | 14.0 | 0.00 | 0.00 | 0.00 | 63 | 1014.8 |
| 20260503214035 | 65 | 34 | 8.0 | 14.0 | 0.00 | 0.00 | 0.00 | 64 | 1014.9 |
| 20260503213609 | 65 | 37 | 7.0 | 14.0 | 0.00 | 0.00 | 0.00 | 64 | 1014.9 |
| 20260503213527 | 65 | 37 | 7.0 | 14.0 | 0.00 | 0.00 | 0.00 | 64 | 1014.9 |
| 20260503213049 | 65 | 35 | 9.0 | 14.0 | 0.00 | 0.00 | 0.00 | 64 | 1015.0 |
| 20260503212603 | 65 | 35 | 8.0 | 14.0 | 0.00 | 0.00 | 0.00 | 65 | 1014.9 |
| 20260503212521 | 65 | 35 | 8.0 | 14.0 | 0.00 | 0.00 | 0.00 | 65 | 1014.9 |
| 20260503212016 | 65 | 34 | 8.0 | 14.0 | 0.00 | 0.00 | 0.00 | 65 | 1015.0 |
| 20260503211600 | 65 | 36 | 5.0 | 13.0 | 0.00 | 0.00 | 0.00 | 66 | 1015.0 |
| 20260503211518 | 65 | 36 | 5.0 | 13.0 | 0.00 | 0.00 | 0.00 | 66 | 1015.0 |
| 20260503211053 | 64 | 32 | 8.0 | 14.0 | 0.00 | 0.00 | 0.00 | 66 | 1015.1 |
| 20260503210607 | 64 | 32 | 9.0 | 13.0 | 0.00 | 0.00 | 0.00 | 67 | 1015.1 |
| 20260503210524 | 64 | 32 | 9.0 | 13.0 | 0.00 | 0.00 | 0.00 | 67 | 1015.1 |
| 20260503210026 | 63 | 35 | 11.0 | 13.0 | 0.00 | 0.00 | 0.00 | 67 | 1015.1 |
| 20260503205601 | 64 | 35 | 8.0 | 13.0 | 0.00 | 0.00 | 0.00 | 67 | 1015.1 |
| 20260503205035 | 64 | 32 | 8.0 | 14.0 | 0.00 | 0.00 | 0.00 | 67 | 1015.1 |
| 20260503204538 | 64 | 35 | 8.0 | 14.0 | 0.00 | 0.00 | 0.00 | 67 | 1015.1 |
| 20260503204113 | 64 | 36 | 8.0 | 12.0 | 0.00 | 0.00 | 0.00 | 67 | 1015.1 |
| 20260503204030 | 64 | 36 | 8.0 | 12.0 | 0.00 | 0.00 | 0.00 | 67 | 1015.1 |
| 20260503203547 | 64 | 36 | 8.0 | 18.0 | 0.00 | 0.00 | 0.00 | 67 | 1015.2 |
| 20260503203049 | 64 | 36 | 10.0 | 18.0 | 0.00 | 0.00 | 0.00 | 66 | 1015.3 |
| 20260503202524 | 64 | 36 | 8.0 | 17.0 | 0.00 | 0.00 | 0.00 | 65 | 1015.3 |
| 20260503202059 | 63 | 35 | 11.0 | 18.0 | 0.00 | 0.00 | 0.00 | 66 | 1015.3 |
| 20260503202017 | 63 | 35 | 11.0 | 18.0 | 0.00 | 0.00 | 0.00 | 66 | 1015.3 |
| 20260503201520 | 64 | 34 | 11.0 | 18.0 | 0.00 | 0.00 | 0.00 | 65 | 1015.4 |
| 20260503201015 | 64 | 36 | 7.0 | 15.0 | 0.00 | 0.00 | 0.00 | 65 | 1015.3 |
| 20260503200531 | 65 | 35 | 8.0 | 15.0 | 0.00 | 0.00 | 0.00 | 65 | 1015.4 |
| 20260503200014 | 64 | 35 | 9.0 | 15.0 | 0.00 | 0.00 | 0.00 | 65 | 1015.4 |
| 20260503195550 | 64 | 35 | 8.0 | 14.0 | 0.00 | 0.00 | 0.00 | 65 | 1015.4 |
| 20260503195104 | 64 | 36 | 7.0 | 13.0 | 0.00 | 0.00 | 0.00 | 66 | 1015.4 |
| 20260503194606 | 64 | 37 | 8.0 | 11.0 | 0.00 | 0.00 | 0.00 | 68 | 1015.5 |
| 20260503194524 | 64 | 37 | 8.0 | 11.0 | 0.00 | 0.00 | 0.00 | 68 | 1015.5 |
| 20260503194020 | 64 | 35 | 5.0 | 12.0 | 0.00 | 0.00 | 0.00 | 68 | 1015.5 |
| 20260503193516 | 64 | 36 | 7.0 | 12.0 | 0.00 | 0.00 | 0.00 | 68 | 1015.6 |
| 20260503193018 | 63 | 35 | 4.0 | 10.0 | 0.00 | 0.00 | 0.00 | 69 | 1015.6 |
| 20260503192613 | 63 | 35 | 6.0 | 12.0 | 0.00 | 0.00 | 0.00 | 69 | 1015.6 |
| 20260503192530 | 63 | 35 | 6.0 | 12.0 | 0.00 | 0.00 | 0.00 | 69 | 1015.6 |
| 20260503192026 | 63 | 38 | 8.0 | 15.0 | 0.00 | 0.00 | 0.00 | 69 | 1015.6 |
| 20260503191552 | 63 | 36 | 9.0 | 15.0 | 0.00 | 0.00 | 0.00 | 70 | 1015.6 |
| 20260503191106 | 62 | 38 | 6.0 | 13.0 | 0.00 | 0.00 | 0.00 | 70 | 1015.7 |
| 20260503190539 | 62 | 36 | 8.0 | 12.0 | 0.00 | 0.00 | 0.00 | 68 | 1015.7 |
| 20260503190113 | 63 | 36 | 7.0 | 12.0 | 0.00 | 0.00 | 0.00 | 68 | 1015.8 |
| 20260503185545 | 62 | 36 | 7.0 | 13.0 | 0.00 | 0.00 | 0.00 | 70 | 1015.7 |
| 20260503185018 | 63 | 34 | 6.0 | 12.0 | 0.00 | 0.00 | 0.00 | 71 | 1015.7 |
| 20260503184542 | 62 | 35 | 8.0 | 12.0 | 0.00 | 0.00 | 0.00 | 72 | 1015.8 |
| 20260503184056 | 62 | 35 | 9.0 | 13.0 | 0.00 | 0.00 | 0.00 | 73 | 1015.8 |
| 20260503184013 | 62 | 35 | 9.0 | 13.0 | 0.00 | 0.00 | 0.00 | 73 | 1015.8 |
| 20260503183529 | 62 | 38 | 8.0 | 14.0 | 0.00 | 0.00 | 0.00 | 73 | 1015.8 |
| 20260503183012 | 62 | 35 | 9.0 | 14.0 | 0.00 | 0.00 | 0.00 | 74 | 1015.6 |
| 20260503182608 | 62 | 36 | 7.0 | 12.0 | 0.00 | 0.00 | 0.00 | 74 | 1015.7 |
| 20260503182525 | 62 | 36 | 7.0 | 12.0 | 0.00 | 0.00 | 0.00 | 74 | 1015.7 |
| 20260503182101 | 63 | 34 | 7.0 | 12.0 | 0.00 | 0.00 | 0.00 | 74 | 1015.6 |
| 20260503181604 | 63 | 35 | 7.0 | 12.0 | 0.00 | 0.00 | 0.00 | 74 | 1015.7 |
| 20260503181039 | 63 | 35 | 5.0 | 10.0 | 0.00 | 0.00 | 0.00 | 74 | 1015.7 |
| 20260503180514 | 63 | 38 | 5.0 | 10.0 | 0.00 | 0.00 | 0.00 | 75 | 1015.7 |
| 20260503180017 | 63 | 34 | 4.0 | 8.0 | 0.00 | 0.00 | 0.00 | 74 | 1015.6 |
| 20260503175534 | 63 | 35 | 3.0 | 7.0 | 0.00 | 0.00 | 0.00 | 74 | 1015.7 |
| 20260503175049 | 63 | 35 | 5.0 | 7.0 | 0.00 | 0.00 | 0.00 | 73 | 1015.7 |
| 20260503174551 | 63 | 32 | 4.0 | 8.0 | 0.00 | 0.00 | 0.00 | 74 | 1015.7 |
| 20260503174047 | 63 | 32 | 4.0 | 8.0 | 0.00 | 0.00 | 0.00 | 73 | 1015.7 |
| 20260503173601 | 63 | 35 | 2.0 | 7.0 | 0.00 | 0.00 | 0.00 | 73 | 1015.6 |
| 20260503173113 | 63 | 35 | 2.0 | 3.0 | 0.00 | 0.00 | 0.00 | 74 | 1015.6 |
| 20260503173031 | 63 | 35 | 2.0 | 3.0 | 0.00 | 0.00 | 0.00 | 74 | 1015.6 |
| 20260503172606 | 63 | 34 | 2.0 | 6.0 | 0.00 | 0.00 | 0.00 | 74 | 1015.6 |
| 20260503172523 | 63 | 34 | 2.0 | 6.0 | 0.00 | 0.00 | 0.00 | 74 | 1015.6 |
| 20260503172059 | 63 | 35 | 4.0 | 7.0 | 0.00 | 0.00 | 0.00 | 74 | 1015.6 |
| 20260503171518 | 63 | 32 | 3.0 | 7.0 | 0.00 | 0.00 | 0.00 | 76 | 1015.5 |
| 20260503171110 | 62 | 35 | 1.0 | 3.0 | 0.00 | 0.00 | 0.00 | 76 | 1015.5 |
| 20260503171028 | 62 | 35 | 1.0 | 3.0 | 0.00 | 0.00 | 0.00 | 76 | 1015.5 |
| 20260503170602 | 62 | 35 | 1.0 | 3.0 | 0.00 | 0.00 | 0.00 | 76 | 1015.6 |
| 20260503170520 | 62 | 35 | 1.0 | 3.0 | 0.00 | 0.00 | 0.00 | 76 | 1015.6 |
| 20260503160107 | 60 | 35 | 3.0 | 6.0 | 0.00 | 0.00 | 0.00 | 83 | 1015.4 |